YD2CLX-18 Weather Reports


time (UTC)temp
C
wind
direction
speed
KPH
gust
KPH
rain 1hr
cm
rain 24hr
cm
rain mn
cm
humidity
%
barometer
mb
20260505223005 29 161 4.8 4.8 0.00 0.00 0.00 87 1009.0
20260505221504 28 161 4.8 4.8 0.00 0.00 0.00 89 1009.0
20260505220005 28 161 4.8 4.8 0.00 0.00 0.00 87 1009.0
20260505214504 28 161 4.8 4.8 0.00 0.00 0.00 88 1009.0
20260505213005 28 161 4.8 4.8 0.00 0.00 0.00 87 1009.0
20260505211504 29 168 4.8 4.8 0.00 0.00 0.00 89 1009.0
20260505210006 29 168 4.8 4.8 0.00 0.00 0.00 88 1009.0
20260505204504 29 168 4.8 4.8 0.00 0.00 0.00 88 1009.0
20260505203004 29 180 4.8 4.8 0.00 0.00 0.00 88 1009.0
20260505201505 29 180 4.8 4.8 0.00 0.00 0.00 89 1009.0
20260505200005 29 180 4.8 4.8 0.00 0.00 0.00 88 1009.0
20260505194504 29 180 4.8 4.8 0.00 0.00 0.00 88 1009.0
20260505193005 29 180 4.8 4.8 0.00 0.00 0.00 88 1009.0
20260505191504 29 182 4.8 4.8 0.00 0.00 0.00 88 1009.0
20260505190005 29 182 4.8 4.8 0.00 0.00 0.00 88 1009.0
20260505184559 29 182 4.8 4.8 0.00 0.00 0.00 88 1009.0
20260505183100 29 182 4.8 4.8 0.00 0.00 0.00 88 1009.0
20260505181559 29 185 6.4 4.8 0.00 0.00 0.00 88 1010.0
20260505180100 29 185 6.4 4.8 0.00 0.00 0.00 88 1010.0
20260505174559 29 185 6.4 4.8 0.00 0.00 0.00 88 1010.0
20260505173059 29 190 6.4 4.8 0.00 0.00 0.00 87 1010.0
20260505171559 30 177 4.8 3.2 0.00 0.00 0.00 88 1010.0
20260505164600 30 177 4.8 3.2 0.00 0.00 0.00 87 1010.0
20260505163101 30 177 4.8 3.2 0.00 0.00 0.00 86 1010.0
20260505161600 30 158 3.2 4.8 0.00 0.00 0.00 88 1011.0
20260505160106 30 158 3.2 4.8 0.00 0.00 0.00 86 1011.0
20260505153103 30 158 3.2 4.8 0.03 0.00 0.00 86 1011.0
20260505151600 30 130 4.8 6.4 0.00 0.00 0.00 88 1011.0
20260505150108 30 130 4.8 6.4 0.00 0.00 0.00 87 1011.0
20260505140106 30 115 6.4 8.0 0.00 0.00 0.00 87 1011.0
20260505130109 30 109 6.4 8.0 0.00 0.00 0.00 86 1010.0
20260505124602 30 109 6.4 8.0 0.00 0.00 0.00 86 1010.0
20260505123105 30 100 8.0 9.7 0.00 0.00 0.00 85 1010.0
20260505121602 30 100 8.0 9.7 0.00 0.00 0.00 85 1009.0
20260505120112 30 100 8.0 9.7 0.00 0.00 0.00 85 1009.0
20260505114606 30 100 8.0 9.7 0.00 0.00 0.00 85 1009.0
20260505113115 30 100 8.0 9.7 0.00 0.00 0.00 85 1009.0
20260505111606 30 73 6.4 6.4 0.00 0.00 0.00 84 1008.0
20260505110116 30 73 6.4 6.4 0.00 0.00 0.00 84 1008.0
20260505101605 31 39 6.4 8.0 0.00 0.00 0.00 79 1008.0
20260505100113 31 39 6.4 8.0 0.00 0.00 0.00 79 1008.0
20260505094606 31 39 6.4 8.0 0.00 0.00 0.00 79 1008.0
20260505093109 31 47 9.7 9.7 0.00 0.00 0.00 75 1008.0
20260505091604 31 47 9.7 9.7 0.00 0.00 0.00 75 1008.0
20260505090130 31 47 9.7 9.7 0.00 0.00 0.00 75 1008.0
20260505084606 31 47 9.7 9.7 0.00 0.00 0.00 75 1008.0
20260505083111 31 47 9.7 9.7 0.00 0.00 0.00 75 1008.0
20260505081608 31 47 9.7 9.7 0.00 0.00 0.00 75 1008.0
20260505080131 31 47 9.7 9.7 0.00 0.00 0.00 75 1008.0
20260505074608 31 47 9.7 9.7 0.00 0.00 0.00 75 1008.0
20260505073117 32 47 9.7 9.7 0.00 0.00 0.00 75 1008.0
20260505071607 32 47 9.7 9.7 0.00 0.00 0.00 75 1008.0
20260505070129 32 47 9.7 9.7 0.00 0.00 0.00 75 1008.0
20260505064605 32 47 9.7 9.7 0.00 0.00 0.00 75 1008.0
20260505063114 32 47 9.7 9.7 0.00 0.00 0.00 75 1008.0
20260505061607 32 47 9.7 9.7 0.00 0.00 0.00 75 1009.0
20260505060128 32 47 9.7 9.7 0.00 0.00 0.00 75 1009.0
20260505054607 32 47 9.7 9.7 0.00 0.00 0.00 75 1009.0
20260505053109 32 47 9.7 9.7 0.00 0.00 0.00 75 1009.0
20260505051604 32 47 9.7 9.7 0.00 0.00 0.00 75 1009.0
20260505050117 32 47 9.7 9.7 0.00 0.00 0.00 75 1009.0
20260505041555 32 47 9.7 9.7 0.00 0.00 0.00 78 1010.0
20260505040057 31 47 9.7 9.7 0.00 0.00 0.00 74 1010.0
20260505034555 31 47 9.7 9.7 0.00 0.00 0.00 76 1010.0
20260505033056 31 47 9.7 9.7 0.00 0.00 0.00 74 1010.0
20260505031555 31 56 8.0 9.7 0.00 0.00 0.00 79 1011.0
20260505030100 31 56 8.0 9.7 0.00 0.00 0.00 76 1011.0
20260505024554 31 56 8.0 9.7 0.00 0.00 0.00 78 1011.0
20260505023056 31 56 8.0 9.7 0.00 0.00 0.00 76 1011.0
20260505021555 31 72 8.0 9.7 0.00 0.00 0.00 80 1011.0
20260505020059 31 72 8.0 9.7 0.00 0.00 0.00 78 1011.0
20260505014555 31 72 8.0 9.7 0.00 0.00 0.00 80 1011.0
20260505013055 31 72 8.0 9.7 0.03 0.00 0.00 79 1011.0
20260505011554 31 76 6.4 9.7 0.00 0.00 0.00 83 1011.0
20260505010057 30 76 6.4 9.7 0.00 0.00 0.00 81 1011.0
20260505004555 30 76 6.4 9.7 0.00 0.00 0.00 83 1011.0
20260505003055 30 76 6.4 9.7 0.03 0.00 0.00 82 1011.0
20260505001555 29 112 4.8 6.4 0.00 0.00 0.00 85 1010.0
20260505000057 29 112 4.8 6.4 0.00 0.00 0.00 85 1010.0
20260504234554 29 112 4.8 6.4 0.00 0.00 0.00 86 1010.0
20260504233055 29 112 4.8 6.4 0.00 0.00 0.00 85 1010.0
20260504231554 29 135 6.4 6.4 0.00 0.00 0.00 88 1009.0
20260504230056 29 135 6.4 6.4 0.00 0.00 0.00 87 1009.0
20260504224554 29 135 6.4 6.4 0.00 0.00 0.00 87 1009.0